User: anonymous
Location: Limerick
(52.6800°N, 8.6400°W)
Time: 08:47:59
(UTC+01:00)
Language:

Sapphire - Orbit

View from above orbital plane
View from above orbital plane
View from above satellite
View from above satellite

Ground track
Ground track

The orbit data is extracted from the following two-line orbital elements,

1 26932U 01043D   14211.73173496  .00000001  00000-0  32577-4 0  6692
2 26932 067.0568 287.1665 0005641 293.9552 066.0958 14.30017789669872
Epoch (UTC): 30 July 2014 17:33:41
Eccentricity: 0.0005641
inclination: 67.0568°
perigee height: 787 km
apogee height: 796 km
right ascension of ascending node: 287.1665°
argument of perigee: 293.9552°
revolutions per day: 14.30017789
mean anomaly at epoch: 66.0958°
orbit number at epoch: 66987

The dashed part of the orbit path shows where the satellite is in the earth's shadow,  

DLR